Back to catalog

SSU 3

AliveScienceLEO
NORAD 8884·PAYLOAD·🇺🇸 United States

Launched Apr 30, 1976 from Vandenberg Space Force Base

Loading…

Next Passes (next 24 hours)

TLE

FreshSource: Space-Track

Epoch: Sep 14, 2026, 12:13 UTC

1 08884U 76038J   26257.50933064 -.00000016  00000-0  45966-4 0  9996
2 08884  63.3585 282.6785 0361666 184.3257 175.4642 13.88076235374507

Track SSU 3 in real time with AllMySat

Download on the App Store